WN8IZV Weather Reports


Display with metric or nautical units.
time (UTC)temp
F
wind
direction
speed
MPH
gust
MPH
rain 1hr
in
rain 24hr
in
rain mn
in
humidity
%
barometer
mb
20260831230017 78 145 1.0 3.0 0.00 0.01 0.01 81 1014.1
20260831224510 78 225 1.0 7.0 0.00 0.01 0.01 81 1014.3
20260831223010 78 169 0.0 3.0 0.00 0.01 0.01 81 1014.4
20260831221507 77 151 0.0 4.0 0.00 0.01 0.01 81 1014.6
20260831220008 77 180 1.0 4.0 0.00 0.01 0.01 81 1014.0
20260831214502 78 166 2.0 7.0 0.00 0.02 0.01 81 1014.7
20260831213101 78 178 2.0 7.0 0.00 0.02 0.01 81 1014.7
20260831211557 78 158 1.0 4.0 0.00 0.02 0.01 81 1014.8
20260831210054 79 209 0.0 5.0 0.00 0.02 0.01 82 1014.9
20260831204550 79 323 1.0 4.0 0.00 0.02 0.01 82 1015.3
20260831203047 80 196 1.0 2.0 0.00 0.02 0.01 82 1015.3
20260831201545 80 51 0.0 4.0 0.00 0.02 0.01 82 1015.5
20260831200045 80 191 0.0 3.0 0.00 0.02 0.01 82 1015.6
20260831194610 80 99 0.0 3.0 0.00 0.03 0.01 82 1015.9
20260831193036 81 134 0.0 3.0 0.00 0.03 0.01 82 1016.0
20260831191535 82 72 0.0 5.0 0.00 0.03 0.01 82 1016.1
20260831190033 81 110 0.0 2.0 0.00 0.03 0.01 82 1016.3
20260831184530 82 113 0.0 1.0 0.00 0.04 0.01 82 1016.2
20260831183028 83 354 0.0 1.0 0.00 0.04 0.01 82 1015.9
20260831181529 82 146 0.0 4.0 0.01 0.04 0.01 82 1015.9
20260831180020 80 39 0.0 0.0 0.01 0.04 0.01 82 1015.8
20260831174525 79 354 0.0 2.0 0.01 0.04 0.01 82 1016.3
20260831173014 78 262 0.0 1.0 0.01 0.04 0.01 82 1016.1
20260831171513 77 262 0.0 1.0 0.00 0.03 0.00 81 1016.1
20260831170010 78 273 0.0 5.0 0.00 0.03 0.00 81 1016.7
20260831164511 79 274 1.0 4.0 0.00 0.10 0.00 82 1017.4
20260831163004 80 280 0.0 2.0 0.00 0.10 0.00 82 1017.2
20260831161501 81 150 1.0 4.0 0.00 0.10 0.00 82 1017.2
20260831160106 80 221 0.0 3.0 0.00 0.10 0.00 82 1017.1
20260831154617 78 4 0.0 2.0 0.00 0.15 0.00 81 1017.2
20260831153049 78 200 0.0 0.0 0.00 0.15 0.00 81 1017.0
20260831151544 78 158 0.0 3.0 0.00 0.15 0.00 81 1016.9
20260831150039 77 154 0.0 2.0 0.00 0.15 0.00 81 1016.7
20260831144537 75 150 0.0 3.0 0.00 0.22 0.00 81 1016.6
20260831143057 76 228 0.0 3.0 0.00 0.22 0.00 81 1016.6
20260831141545 75 190 0.0 3.0 0.00 0.22 0.00 80 1016.4
20260831140037 74 207 0.0 2.0 0.00 0.22 0.00 80 1016.4
20260831134518 73 142 0.0 0.0 0.00 0.37 0.00 80 1016.3
20260831133024 73 158 0.0 0.0 0.00 0.37 0.00 80 1016.4
20260831131513 72 192 0.0 1.0 0.00 0.37 0.00 80 1016.3
20260831130010 72 155 0.0 0.0 0.00 0.37 0.00 80 1016.2
20260831124506 71 155 0.0 0.0 0.00 0.38 0.00 80 1016.2
20260831123007 71 155 0.0 0.0 0.00 0.38 0.00 80 1016.2
20260831121503 70 155 0.0 0.0 0.00 0.38 0.00 79 1016.2
20260831120001 70 160 0.0 0.0 0.00 0.38 0.00 79 1016.2
20260831114558 70 159 0.0 0.0 0.00 0.38 0.00 79 1016.4
20260831113058 70 160 0.0 0.0 0.00 0.38 0.00 79 1016.4
20260831111558 69 160 0.0 0.0 0.00 0.38 0.00 79 1016.2
20260831110057 69 159 0.0 0.0 0.00 0.38 0.00 79 1016.2
20260831104550 69 159 0.0 0.0 0.00 0.39 0.00 79 1016.3
20260831103049 69 159 0.0 0.0 0.00 0.39 0.00 79 1016.1
20260831101600 69 160 0.0 0.0 0.00 0.39 0.00 79 1016.2
20260831100056 69 160 0.0 0.0 0.00 0.39 0.00 79 1016.2
20260831094542 69 153 0.0 0.0 0.00 0.42 0.00 79 1016.0
20260831093038 70 153 0.0 0.0 0.00 0.42 0.00 79 1016.2
20260831091538 70 153 0.0 0.0 0.00 0.42 0.00 79 1016.2
20260831090042 70 153 0.0 0.0 0.00 0.42 0.00 79 1016.1
20260831084532 70 160 0.0 0.0 0.00 0.42 0.00 79 1015.9
20260831083030 70 184 0.0 0.0 0.00 0.42 0.00 79 1015.7
20260831081529 70 184 0.0 0.0 0.00 0.42 0.00 79 1015.8
20260831080026 70 184 0.0 0.0 0.00 0.42 0.00 79 1015.8
20260831074524 70 184 0.0 0.0 0.00 0.42 0.00 79 1015.9
20260831073027 70 184 0.0 0.0 0.00 0.42 0.00 79 1016.2
20260831071519 70 184 0.0 0.0 0.00 0.42 0.00 79 1016.1
20260831070028 70 184 0.0 0.0 0.00 0.42 0.00 79 1016.4
20260831064513 70 88 0.0 0.0 0.00 0.42 0.00 79 1016.5
20260831063014 71 88 0.0 0.0 0.00 0.42 0.00 79 1016.5
20260831061507 71 87 0.0 0.0 0.00 0.42 0.00 79 1016.6
20260831060004 71 172 0.0 2.0 0.00 0.42 0.00 79 1016.5
20260831054601 71 163 0.0 2.0 0.00 0.42 0.00 79 1016.6
20260831053059 71 193 0.0 1.0 0.00 0.42 0.00 79 1016.7
20260831051618 71 211 0.0 2.0 0.00 0.42 0.00 78 1016.7
20260831050054 71 209 0.0 3.0 0.00 0.42 0.00 78 1016.7
20260831044551 71 46 0.0 0.0 0.00 0.42 0.00 78 1016.9
20260831043050 71 147 0.0 0.0 0.00 0.42 0.00 78 1016.9
20260831041546 71 147 0.0 0.0 0.00 0.42 0.00 78 1016.9
20260831040043 71 127 0.0 1.0 0.00 0.42 0.00 78 1016.8
20260831034544 71 185 0.0 2.0 0.00 0.42 0.42 78 1016.8
20260831033038 71 206 0.0 2.0 0.00 0.42 0.42 78 1016.9
20260831031541 71 173 0.0 2.0 0.00 0.42 0.42 78 1016.8
20260831030034 71 137 0.0 1.0 0.00 0.42 0.42 78 1016.7
20260831024602 71 184 0.0 2.0 0.00 0.42 0.42 78 1016.6
20260831023030 71 165 0.0 3.0 0.00 0.42 0.42 78 1016.7
20260831021528 71 188 1.0 2.0 0.00 0.42 0.42 78 1016.8
20260831020026 71 153 0.0 4.0 0.00 0.42 0.42 78 1016.8
20260831014535 70 111 0.0 3.0 0.00 0.42 0.42 78 1016.7
20260831013022 71 147 0.0 3.0 0.00 0.42 0.42 77 1016.5
20260831011520 71 133 0.0 2.0 0.00 0.42 0.42 77 1016.7
20260831010018 71 165 0.0 2.0 0.00 0.42 0.42 77 1016.7
20260831004518 71 194 0.0 3.0 0.00 0.42 0.42 77 1016.4
20260831003014 71 193 0.0 3.0 0.00 0.42 0.42 77 1016.2
20260831001511 71 124 1.0 4.0 0.00 0.42 0.42 77 1016.3
20260831000007 71 147 0.0 6.0 0.00 0.42 0.42 77 1016.5
20260830234504 71 171 1.0 5.0 0.00 0.42 0.42 77 1016.6
20260830233001 71 198 0.0 0.0 0.00 0.42 0.42 77 1016.9
20260830231559 71 130 0.0 0.0 0.00 0.42 0.42 77 1017.2